This is the latest recevied weather packets stored in our database for station/object WD8EHT. If no packets are shown the sender has not sent any weather packets the latest 1 day(s).
| Time | Temp. | Humidity | Pressure | Rain* | Wind** | Luminosity | Snow |
|---|---|---|---|---|---|---|---|
| 1778016499 | 11.67° C | 43% | 1006.5 hPa | 0 mm | 1.34 m/s, 38° | 160 W/m² | - |
| 1778016196 | 12.22° C | 40% | 1006.6 hPa | 0 mm | 0.89 m/s, 83° | 166 W/m² | - |
| 1778015892 | 12.22° C | 40% | 1006.4 hPa | 0 mm | 1.34 m/s, 55° | 201 W/m² | - |
| 1778015590 | 12.22° C | 42% | 1006.2 hPa | 0 mm | 0.89 m/s, 15° | 228 W/m² | - |
| 1778015286 | 12.22° C | 42% | 1006.5 hPa | 0 mm | 0 m/s | 208 W/m² | - |
| 1778014983 | 12.22° C | 40% | 1006.5 hPa | 0 mm | 1.79 m/s, 353° | 203 W/m² | - |
| 1778014680 | 12.22° C | 40% | 1006.4 hPa | 0 mm | 0.45 m/s, 348° | 199 W/m² | - |
| 1778014379 | 12.22° C | 41% | 1006.4 hPa | 0 mm | 0.45 m/s, 328° | 223 W/m² | - |
| 1778014075 | 12.22° C | 40% | 1006.4 hPa | 0 mm | 0.89 m/s, 70° | 237 W/m² | - |
| 1778013773 | 12.22° C | 39% | 1006.4 hPa | 0 mm | 0.89 m/s, 9° | 223 W/m² | - |
| 1778013470 | 12.78° C | 38% | 1006.3 hPa | 0 mm | 1.79 m/s, 356° | 212 W/m² | - |
| 1778013167 | 12.78° C | 39% | 1006.5 hPa | 0 mm | 0.45 m/s, 326° | 203 W/m² | - |
| 1778012862 | 12.22° C | 40% | 1006.4 hPa | 0 mm | 0.89 m/s, 7° | 214 W/m² | - |
| 1778012559 | 12.22° C | 39% | 1006.4 hPa | 0 mm | 1.79 m/s, 10° | 203 W/m² | - |
| 1778012255 | 12.22° C | 40% | 1006.3 hPa | 0 mm | 1.34 m/s, 297° | 181 W/m² | - |
| 1778011953 | 12.78° C | 39% | 1006.2 hPa | 0 mm | 1.34 m/s, 335° | 216 W/m² | - |
| 1778011651 | 12.78° C | 39% | 1006 hPa | 0 mm | 1.79 m/s, 42° | 236 W/m² | - |
| 1778011348 | 12.78° C | 41% | 1006.1 hPa | 0 mm | 0.89 m/s, 26° | 248 W/m² | - |
| 1778011043 | 12.78° C | 41% | 1006.2 hPa | 0 mm | 0.45 m/s, 336° | 196 W/m² | - |
| 1778010741 | 12.78° C | 41% | 1006.2 hPa | 0 mm | 1.34 m/s, 35° | 201 W/m² | - |
| 1778010438 | 12.78° C | 42% | 1006.3 hPa | 0 mm | 1.79 m/s, 334° | 206 W/m² | - |
| 1778010134 | 12.78° C | 43% | 1006.4 hPa | 0 mm | 1.34 m/s, 355° | 236 W/m² | - |
| 1778009830 | 12.78° C | 44% | 1006.4 hPa | 0 mm | 1.34 m/s, 10° | 231 W/m² | - |
| 1778009528 | 12.78° C | 43% | 1006.1 hPa | 0 mm | 1.34 m/s, 52° | 237 W/m² | - |
| 1778009227 | 12.78° C | 43% | 1006.2 hPa | 0 mm | 2.24 m/s, 83° | 206 W/m² | - |
* Rain latest hour (hover to see other rain measurements)
** Current wind speed in m/s (hover to see current wind gust speed)